Voltar ao catálogo

SCOUT G-1 R/B

AtivoPO
NORAD 17071·ROCKET BODY·🇺🇸 United States

Lançado Nov 14, 1986 de Vandenberg Space Force Base

Loading…

Próximas Passagens (próximas 24 horas)

TLE

AtualizadoSource: Space-Track

Época: Sep 14, 2026, 17:13 UTC

1 17071U 86088B   26257.71800185  .00000096  00000-0  87263-4 0  9993
2 17071  89.6096 163.9176 0038447 349.7772  10.2607 13.75643556998034

Acompanhe SCOUT G-1 R/B em tempo real com AllMySat

Download on the App Store